EN

Hourly Weather Dzierzaznia

Today, 26 October, Monday

Time Temperature Precipitation Wind Pressure Humidity
00:00 +10°C° 0 mm 3 mps 749 mmHg 89%
01:00 +10°C° 0 mm 4 mps 748 mmHg 89%
02:00 +10°C° 0 mm 4 mps 748 mmHg 90%
03:00 +10°C° 0 mm 4 mps 748 mmHg 92%
04:00 +10°C° 0 mm 3 mps 747 mmHg 93%
05:00 +10°C° 0 mm 3 mps 747 mmHg 93%
06:00 +10°C° 0 mm 3 mps 747 mmHg 93%
07:00 +11°C° 0 mm 3 mps 747 mmHg 94%
08:00 +12°C° 0 mm 4 mps 747 mmHg 91%
09:00 +12°C° 0 mm 4 mps 747 mmHg 87%
10:00 +13°C° 0 mm 4 mps 746 mmHg 84%
11:00 +14°C° 0 mm 4 mps 746 mmHg 80%
12:00 +15°C° 0 mm 4 mps 746 mmHg 75%
13:00 +15°C° 0 mm 4 mps 745 mmHg 70%
14:00 +15°C° 0 mm 4 mps 745 mmHg 73%
15:00 +14°C° 0 mm 3 mps 745 mmHg 77%
16:00 +14°C° 0 mm 3 mps 744 mmHg 80%
17:00 +13°C° 0 mm 4 mps 744 mmHg 80%
18:00 +12°C° 0 mm 4 mps 744 mmHg 82%
19:00 +12°C° 0 mm 4 mps 744 mmHg 84%
20:00 +13°C° 0 mm 5 mps 744 mmHg 80%
21:00 +13°C° 0 mm 5 mps 744 mmHg 79%
22:00 +13°C° 0 mm 5 mps 744 mmHg 78%
23:00 +13°C° 0 mm 3 mps 746 mmHg 83%

Tomorrow, 27 October, Tuesday

Time Temperature Precipitation Wind Pressure Humidity
00:00 +12°C° 0 mm 3 mps 746 mmHg 86%
01:00 +12°C° 0 mm 3 mps 746 mmHg 88%
02:00 +12°C° 0 mm 4 mps 745 mmHg 85%
03:00 +12°C° 0 mm 3 mps 745 mmHg 87%
04:00 +11°C° 0 mm 3 mps 745 mmHg 88%
05:00 +11°C° 0 mm 3 mps 746 mmHg 90%
06:00 +12°C° 0 mm 2 mps 746 mmHg 91%
07:00 +10°C° 0 mm 2 mps 747 mmHg 93%
08:00 +12°C° 0 mm 2 mps 747 mmHg 89%
09:00 +13°C° 0 mm 2 mps 747 mmHg 85%
10:00 +13°C° 0 mm 2 mps 748 mmHg 81%
11:00 +14°C° 0 mm 2 mps 748 mmHg 79%
12:00 +15°C° 0 mm 2 mps 748 mmHg 76%
13:00 +14°C° 0 mm 3 mps 748 mmHg 74%
14:00 +15°C° 0 mm 2 mps 748 mmHg 77%
15:00 +14°C° 0 mm 2 mps 748 mmHg 81%
16:00 +14°C° 0 mm 2 mps 748 mmHg 84%
17:00 +13°C° 0.2 mm 2 mps 748 mmHg 86%
18:00 +13°C° 0.2 mm 2 mps 749 mmHg 88%
19:00 +12°C° 0.2 mm 2 mps 749 mmHg 89%
20:00 +12°C° 1 mm 2 mps 749 mmHg 90%
21:00 +12°C° 1 mm 2 mps 749 mmHg 91%
22:00 +10°C° 1 mm 2 mps 749 mmHg 92%
23:00 +12°C° 0.1 mm 3 mps 749 mmHg 88%

Day after tomorrow, 28 October, Wednesday

Time Temperature Precipitation Wind Pressure Humidity
00:00 +11°C° 0.1 mm 3 mps 749 mmHg 90%
01:00 +11°C° 0.1 mm 3 mps 749 mmHg 92%
02:00 +10°C° 0 mm 3 mps 749 mmHg 93%
03:00 +9°C° 0 mm 2 mps 749 mmHg 94%
04:00 +8°C° 0 mm 2 mps 750 mmHg 96%
05:00 +8°C° 0 mm 2 mps 750 mmHg 95%
06:00 +9°C° 0 mm 1 mps 750 mmHg 95%
07:00 +9°C° 0 mm 1 mps 751 mmHg 95%
08:00 +10°C° 0 mm 1 mps 751 mmHg 89%
09:00 +10°C° 0 mm 2 mps 751 mmHg 83%
10:00 +13°C° 0 mm 2 mps 751 mmHg 77%
11:00 +13°C° 0 mm 2 mps 751 mmHg 73%
12:00 +13°C° 0 mm 3 mps 751 mmHg 70%
13:00 +14°C° 0 mm 3 mps 750 mmHg 66%
14:00 +13°C° 0 mm 3 mps 750 mmHg 69%
15:00 +13°C° 0 mm 3 mps 750 mmHg 73%
16:00 +13°C° 0 mm 2 mps 750 mmHg 76%
17:00 +13°C° 0 mm 2 mps 750 mmHg 80%
18:00 +11°C° 0 mm 3 mps 750 mmHg 84%
19:00 +10°C° 0 mm 3 mps 750 mmHg 88%
20:00 +10°C° 0 mm 3 mps 750 mmHg 89%
21:00 +10°C° 0 mm 3 mps 750 mmHg 89%
22:00 +10°C° 0 mm 3 mps 751 mmHg 90%
23:00 +10°C° 0 mm 3 mps 750 mmHg 90%

29 October, Thursday

Time Temperature Precipitation Wind Pressure Humidity
00:00 +10°C° 0 mm 3 mps 750 mmHg 90%
01:00 +9°C° 0 mm 3 mps 750 mmHg 90%
02:00 +9°C° 0 mm 3 mps 750 mmHg 88%
03:00 +9°C° 0 mm 3 mps 750 mmHg 86%
04:00 +8°C° 0 mm 3 mps 750 mmHg 84%
05:00 +8°C° 0 mm 3 mps 750 mmHg 84%
06:00 +8°C° 0 mm 3 mps 751 mmHg 83%
07:00 +8°C° 0 mm 3 mps 751 mmHg 82%
08:00 +10°C° 0 mm 4 mps 751 mmHg 77%
09:00 +11°C° 0 mm 4 mps 751 mmHg 71%
10:00 +13°C° 0 mm 5 mps 751 mmHg 65%
11:00 +13°C° 0 mm 5 mps 751 mmHg 63%
12:00 +14°C° 0 mm 6 mps 751 mmHg 61%
13:00 +15°C° 0 mm 6 mps 751 mmHg 59%
14:00 +14°C° 0.2 mm 5 mps 751 mmHg 64%
15:00 +13°C° 0.2 mm 5 mps 751 mmHg 68%
16:00 +12°C° 0.2 mm 4 mps 752 mmHg 73%
17:00 +11°C° 0 mm 4 mps 752 mmHg 75%
18:00 +10°C° 0 mm 3 mps 752 mmHg 78%
19:00 +9°C° 0 mm 3 mps 753 mmHg 80%
20:00 +9°C° 0 mm 3 mps 753 mmHg 82%
21:00 +9°C° 0 mm 3 mps 753 mmHg 83%
22:00 +8°C° 0 mm 3 mps 754 mmHg 84%
23:00 +8°C° 0 mm 3 mps 754 mmHg 85%

30 October, Friday

Time Temperature Precipitation Wind Pressure Humidity
00:00 +8°C° 0 mm 3 mps 754 mmHg 86%
01:00 +8°C° 0 mm 3 mps 754 mmHg 87%
02:00 +8°C° 0 mm 3 mps 754 mmHg 86%
03:00 +7°C° 0 mm 4 mps 754 mmHg 85%
04:00 +7°C° 0 mm 4 mps 754 mmHg 84%
05:00 +7°C° 0 mm 4 mps 754 mmHg 84%
06:00 +7°C° 0 mm 4 mps 754 mmHg 84%
07:00 +8°C° 0 mm 5 mps 754 mmHg 84%
08:00 +8°C° 0 mm 5 mps 754 mmHg 82%
09:00 +9°C° 0 mm 5 mps 754 mmHg 80%
10:00 +9°C° 0 mm 5 mps 754 mmHg 79%
11:00 +10°C° 0 mm 5 mps 754 mmHg 77%
12:00 +12°C° 0 mm 5 mps 754 mmHg 76%
13:00 +13°C° 0 mm 5 mps 754 mmHg 75%
14:00 +13°C° 0 mm 5 mps 754 mmHg 77%
15:00 +12°C° 0 mm 4 mps 754 mmHg 79%
16:00 +12°C° 0 mm 4 mps 754 mmHg 80%
17:00 +12°C° 0 mm 4 mps 754 mmHg 82%
18:00 +12°C° 0 mm 4 mps 754 mmHg 83%
19:00 +11°C° 0 mm 4 mps 754 mmHg 84%
20:00 +11°C° 0 mm 4 mps 754 mmHg 85%
21:00 +11°C° 0 mm 4 mps 754 mmHg 86%
22:00 +11°C° 0 mm 4 mps 754 mmHg 88%
23:00 +10°C° 0 mm 3 mps 755 mmHg 88%

31 October, Saturday

Time Temperature Precipitation Wind Pressure Humidity
00:00 +10°C° 0 mm 3 mps 755 mmHg 89%
01:00 +10°C° 0 mm 3 mps 755 mmHg 90%
02:00 +10°C° 0 mm 3 mps 755 mmHg 91%
03:00 +9°C° 0 mm 3 mps 755 mmHg 91%
04:00 +9°C° 0 mm 3 mps 755 mmHg 91%
05:00 +9°C° 0 mm 3 mps 755 mmHg 91%
06:00 +9°C° 0 mm 3 mps 755 mmHg 90%
07:00 +8°C° 0 mm 2 mps 755 mmHg 90%
Show more